Location: Arrodets-la-Barthe
(43.0306°N, 0.2829°E)
Time: 12:24:39
(UTC+00:00)

CZ-2C R/B - Pass Details

Date: 24 October 2021
Orbit: 784 x 871 km, 98.2° (Epoch: 07 December)

Event Time Altitude Azimuth Distance (km) Brightness Sun altitude
Rises 18:40:40 0° 9° (N) 3,463 5.8 -18.7°
Reaches altitude 10° 18:43:06 10° 6° (N) 2,515 5.1 -19.1°
Maximum altitude 18:48:35 59° 288° (WNW) 986 3.3 -20.1°
Drops below altitude 10° 18:53:56 10° 210° (SSW) 2,455 5.4 -21.1°
Sets 18:56:18 0° 207° (SSW) 3,372 6.1 -21.5°
